SCP
0 0 0 0 0 0 0 0 0 0 0 0 0 0 0 0 0 0 0 0 0 0 0 0 0 0 0 0 0 0 0 0 0 0 0 0 0 0 0 0 0 0 0 0
0 0 0 -0 -0 0 0 0 0 0 0 -0 0 0 0 0 -0 0 0 0 0 0 0 0 0 0 0 0 0 0 0 0 0 0 0 0 0 0 0 0 0 0 0 0
0 -0 -0 -0 0 0 0 0 0 0 0 0 0 0 0 0 0 0 0 0 0 0 0 0 0 0 0 0 0 0 0 0 0 0 0 0 0 0 0 0 0 0 0 0
0 0 0 0 0 0 0 0 0 0 0 0 0 0 0 0 0 0 0 0 0 0 0 0 0 0 0 0 0 0 0 0 0 1 0 0 0 0 0 0 0 0 0 0
0 0 0 0 0 0 0 0 0 0 0 0 0 0 0 0 0 0 0 0 0 0 0 0 0 0 0 0 0 0 0 0 0 0 0 0 0 0 0 0 0 0 0 0
0 0 0 0 0 0 0 0 0 0 0 0 0 0 0 0 0 0 0 0 0 0 0 0 0 0 0 0 0 0 0 0 0 0 0 0 0 0 0 0 0 0 0 0
0 0 0 0 0 0 -0 0 0 0 0 0 0 0 0 0 0 0 0 0 0 0 0 0 0 0 0 0 0 0 0 0 0 0 0 0 0 0 0 0 0 0 0 0
0 0 0 0 0 0 0 0 0 0 0 0 0 0 0 0 0 0 0 0 0 0 0 0 0 0 0 0 0 0 0 0 0 0 0 0 0 0 0 0 0 0 0 0
0 0 0 -0 -0 0 0 0 0 0 0 0 0 0 -0 0 0 0 0 0 0 0 0 0 0 0 0 0 0 0 0 0 0 0 0 0 0 0 0 0 0 0 0 0
0 0 0 0 0 0 0 0 0 0 0 0 0 0 0 0 0 0 0 0 0 0 0 0 0 0 0 0 0 0 0 0 0 0 0 0 0 0 0 0 0 0 0 0
0 0 0 0 0 0 0 0 0 0 0 0 0 0 0 0 0 0 0 0 0 0 0 0 0 0 0 0 0 0 0 0 0 0 0 0 0 0 0 0 0 0 0 0
0 0 0 0 0 0 0 0 0 0 0 0 0 0 0 0 0 -0 0 0 0 0 0 0 0 0 0 0 0 0 0 0 0 0 0 0 0 0 0 0 0 0 0 0
0 0 0 0 0 0 0 0 0 0 0 0 0 0 0 0 0 0 0 0 0 0 0 0 0 0 0 0 0 0 0 0 0 0 0 0 0 0 0 0 0 0 0 0
0 0 0 0 0 0 0 0 0 0 0 0 0 0 0 0 0 0 0 0 0 0 0 0 0 0 0 0 0 0 0 0 0 0 0 0 0 0 0 0 0 0 0 0
0 0 0 0 0 0 0 0 0 0 0 0 0 0 0 0 0 0 0 0 0 0 0 0 0 0 0 0 0 0 0 0 0 0 0 0 0 0 0 0 0 0 0 0
0 0 0 0 0 0 0 0 0 0 0 0 0 0 0 0 0 -0 0 0 0 0 0 0 0 0 0 0 0 0 0 0 0 0 0 0 0 0 0 0 0 0 0 0
0 0 0 0 0 0 0 0 0 0 0 0 0 0 0 0 0 0 -0 0 0 0 -0 0 0 0 0 0 0 0 0 1 1 0 0 0 0 0 0 0 0 0 0 0
0 0 0 0 0 0 0 0 0 0 0 0 0 0 0 0 0 0 0 0 0 0 0 0 0 0 0 1 1 1 0 1 0 0 0 0 0 0 0 0 0 0 0 0
0 0 0 0 0 0 0 0 0 0 0 0 0 0 0 0 0 0 0 0 0 0 0 0 0 0 0 1 1 1 1 1 0 0 0 0 0 0 0 0 0 0 0 0
0 0 0 0 0 0 0 0 0 0 0 0 0 0 0 0 0 0 0 0 0 0 0 0 0 0 0 1 2 2 1 1 0 0 0 0 0 0 0 0 0 0 0 0
0 0 0 0 0 0 0 0 0 0 0 0 0 0 0 0 0 0 0 0 0 0 0 0 0 0 0 1 2 2 1 0 0 0 0 0 0 0 0 0 0 0 0 0
0 0 0 0 0 0 0 0 0 0 0 0 0 0 0 0 0 0 0 0 0 0 0 0 0 0 0 1 1 1 0 0 0 0 0 0 0 0 0 0 0 0 0 0
-0 0 0 0 0 0 0 0 0 0 0 0 0 0 0 0 0 0 0 0 0 0 0 0 0 0 0 1 0 0 0 0 0 0 0 0 0 0 0 0 0 0 0 0
-0 -0 0 0 0 0 0 0 0 0 0 0 0 0 0 0 0 0 0 0 0 0 0 0 0 0 0 0 0 0 0 0 0 0 0 0 0 0 0 0 0 0 0 0
0 0 0 0 -0 0 0 0 0 0 0 0 0 0 0 0 0 0 0 0 0 0 0 0 -0 -0 0 0 0 0 0 0 0 0 0 0 0 0 0 0 0 0 0 0
0 0 0 -0 -0 0 -0 0 0 0 0 0 0 0 0 0 0 0 0 0 0 0 0 0 0 0 0 0 0 0 0 0 0 0 0 0 0 0 0 0 0 0 0 0
Wind_Speed_500mb
42 26 35 42 42 41 35 44 41 33 49 37 44 36 37 47 44 59 53 51 56 54 52 54 51 54 57 56 55 57 51 47 45 43 33 23 12 17 13 14 14 16 17 24
33 39 40 41 40 43 43 46 46 42 36 42 39 40 37 33 43 44 55 56 49 59 57 61 61 63 63 62 60 62 58 52 49 44 28 25 24 19 20 20 18 24 18 30
40 40 45 40 38 43 45 43 42 46 35 37 34 31 23 29 49 55 53 49 53 56 63 62 70 70 67 69 68 65 64 58 52 47 46 45 41 26 12 8 9 27 31 36
41 40 47 24 30 38 35 32 36 37 33 33 32 28 32 39 42 40 50 60 63 63 57 71 74 79 74 71 69 64 64 63 56 50 50 43 33 14 16 24 21 28 30 33
43 43 41 38 38 36 36 35 39 41 39 37 45 30 29 34 48 47 42 53 53 46 52 63 66 83 81 72 67 64 60 63 56 62 45 42 37 29 31 24 25 29 25 26
46 51 38 36 29 34 34 35 38 29 28 29 41 38 32 30 33 32 43 59 57 52 54 53 64 69 85 80 73 70 65 61 57 58 54 46 37 34 33 29 30 28 14 25
41 50 44 36 27 34 42 24 18 23 26 26 39 39 32 31 25 11 30 53 62 58 55 55 65 73 81 87 79 73 67 62 59 57 58 56 48 41 40 36 33 25 30 28
34 38 48 38 42 40 30 29 23 27 25 34 41 41 36 42 51 12 13 24 26 22 24 21 26 31 48 84 81 72 70 64 60 61 59 54 52 47 43 37 34 35 36 41
39 54 47 48 50 43 47 31 41 38 40 30 32 40 47 19 18 15 22 21 21 10 9 14 24 30 40 58 81 75 67 67 60 53 52 51 48 47 40 34 42 44 45 45
16 31 42 42 37 46 39 32 29 23 35 39 37 37 16 29 27 26 22 26 19 18 9 13 20 24 29 36 74 74 65 64 54 44 46 53 53 49 46 45 47 47 48 49
21 17 33 38 40 33 25 29 32 25 20 27 27 28 28 11 30 14 23 35 38 24 26 20 18 16 23 20 53 62 54 48 40 40 50 51 48 46 44 46 48 49 49 50
23 13 27 46 46 47 38 38 35 18 30 24 29 27 17 24 24 24 33 30 32 25 20 21 15 14 23 28 39 43 46 46 41 47 52 51 47 48 49 51 51 51 51 53
21 12 23 34 37 42 48 38 30 30 28 35 28 24 14 20 9 17 22 19 23 22 14 22 30 20 24 29 34 37 49 48 48 48 48 49 50 48 48 50 50 51 54 57
16 20 28 29 33 29 26 41 32 24 23 26 30 41 46 36 5 11 10 11 36 36 27 21 36 38 33 37 38 46 42 44 43 40 43 44 45 49 44 43 51 56 57 58
26 25 36 44 48 52 50 48 43 35 43 35 31 50 44 38 26 47 52 26 33 24 11 32 23 31 44 41 37 33 38 42 46 48 45 45 49 52 53 53 55 55 58 63
21 18 33 39 43 46 57 52 50 50 31 48 49 50 34 43 64 21 30 17 26 33 35 49 27 39 30 22 28 41 46 47 40 42 41 42 45 48 44 45 52 56 60 63
34 30 31 38 40 41 39 46 52 52 48 32 34 45 37 34 38 12 34 29 35 41 41 50 47 24 13 29 28 27 27 39 46 42 36 41 43 41 41 46 49 55 62 70
44 40 29 31 38 43 31 39 43 43 49 47 47 43 44 44 46 52 30 34 26 40 35 29 45 40 35 29 23 30 29 40 38 37 35 37 37 38 42 47 57 62 65 74
34 38 33 29 34 40 47 40 38 41 47 37 39 44 53 53 42 51 35 32 30 34 35 29 31 40 42 34 36 30 22 30 29 29 30 29 34 40 44 53 57 66 73 76
18 7 19 32 33 37 42 50 69 51 44 44 47 36 34 37 23 22 42 37 35 29 27 28 26 31 35 34 33 36 24 23 23 21 22 27 38 45 53 55 65 67 68 72
24 14 21 22 20 17 40 51 62 35 27 45 52 48 51 21 26 39 47 65 44 35 32 32 34 36 39 34 39 31 23 20 15 18 26 36 42 41 51 59 59 60 60 60
30 23 23 24 31 40 15 34 40 10 29 35 33 36 31 24 35 37 32 24 20 27 32 34 35 39 45 44 33 21 19 16 21 28 31 34 39 48 49 46 47 50 54 56
28 21 21 26 19 25 32 31 29 21 30 31 31 33 29 30 32 34 45 15 28 30 33 34 38 37 38 34 30 25 19 21 27 25 29 42 43 35 33 37 43 47 42 47
36 46 16 27 30 35 58 56 50 48 57 32 37 34 33 36 41 33 28 25 24 25 35 36 44 38 33 30 20 26 25 29 33 28 32 28 27 27 32 31 35 36 44 52
29 36 39 44 45 48 61 59 57 50 24 29 47 42 50 43 41 37 36 28 28 37 34 39 42 44 42 26 22 20 16 25 18 23 20 21 19 26 29 28 35 41 45 51
37 40 30 33 52 47 57 46 49 52 39 32 36 39 43 41 27 44 37 31 29 44 30 31 38 29 37 28 22 17 16 20 16 13 13 15 21 22 25 30 37 40 45 55
Wind_Direction_500mb
216 229 230 230 229 245 248 254 242 210 250 237 209 208 209 255 240 186 196 203 203 204 198 191 187 186 185 193 199 183 190 197 194 186 177 185 184 177 199 250 275 321 330 339
234 225 241 239 235 234 241 256 263 265 228 243 204 215 232 221 249 204 193 203 211 203 201 190 186 187 190 194 205 191 194 200 198 192 164 199 176 205 189 243 291 309 318 335
232 238 227 229 250 239 238 235 249 261 271 266 260 227 223 246 233 245 216 213 218 217 199 195 188 187 191 197 209 202 198 205 199 193 189 194 197 215 234 237 332 305 322 323
245 250 258 230 248 254 247 247 262 267 252 256 222 244 237 240 252 234 242 202 211 214 212 195 191 189 191 200 209 212 206 211 200 187 213 209 212 192 190 197 247 271 300 321
254 244 248 241 235 256 252 244 243 233 249 260 253 237 237 227 225 231 222 224 222 225 218 200 192 192 195 196 203 210 212 215 209 196 206 213 201 201 227 237 255 286 311 319
257 265 266 241 250 242 257 246 251 271 232 241 248 250 238 242 252 240 213 203 212 212 221 210 199 196 196 196 197 207 209 214 216 211 201 216 217 202 216 238 263 288 290 275
256 256 253 261 249 249 231 233 241 230 238 234 235 242 246 260 249 247 221 198 202 204 210 206 204 205 198 192 192 201 205 210 216 215 218 216 217 231 239 252 268 273 280 289
255 238 244 233 224 245 201 222 232 232 233 238 231 243 241 239 259 187 58 161 156 166 193 218 231 226 211 192 187 194 202 206 214 214 227 224 227 236 249 257 267 270 276 292
245 257 263 228 232 213 244 214 231 253 263 263 263 244 219 182 116 139 144 136 124 146 222 252 244 230 229 200 188 189 198 199 206 213 226 226 234 240 246 249 259 273 283 291
292 292 262 266 281 216 218 250 243 223 241 256 259 264 276 176 194 173 173 160 183 143 157 229 249 244 235 215 193 187 195 194 201 216 229 227 236 245 253 257 264 271 280 286
318 287 268 277 260 249 211 216 245 275 231 264 248 254 283 295 191 206 189 183 161 160 204 182 222 208 212 204 167 173 178 192 202 223 224 231 237 246 256 264 272 277 284 292
11 309 277 255 262 269 260 237 224 236 254 246 247 242 268 45 101 219 184 172 143 161 175 158 164 179 185 164 162 176 187 194 214 216 222 232 239 242 250 261 270 278 284 291
352 284 282 267 264 273 270 253 251 260 228 241 250 250 229 156 89 106 145 156 172 167 177 157 149 167 171 169 177 187 198 202 206 213 220 231 237 250 258 269 276 283 286 291
328 266 267 262 273 308 308 309 333 330 294 223 244 272 255 264 77 28 32 222 177 180 189 187 168 166 175 175 185 193 192 199 209 213 220 230 246 251 261 261 268 276 285 290
331 301 303 280 278 285 284 284 284 269 275 256 237 221 254 270 85 50 338 306 345 346 215 198 203 178 177 181 186 195 201 206 209 216 221 231 238 247 257 265 275 282 283 286
286 290 301 290 290 283 283 278 275 270 242 276 274 265 244 236 109 74 305 284 335 327 344 325 233 206 217 219 201 211 216 217 216 219 225 233 246 253 260 265 274 282 287 287
275 280 285 280 285 287 270 268 267 271 271 257 264 296 300 306 324 110 162 272 195 234 217 248 272 312 355 223 226 240 249 230 217 224 231 237 245 254 260 271 275 277 277 282
268 262 260 266 277 263 265 272 282 280 273 275 279 276 279 290 300 316 317 310 306 291 288 307 304 320 324 325 302 265 259 235 223 220 226 238 251 258 262 267 269 276 280 281
257 253 255 253 255 267 271 264 261 266 274 275 280 268 271 279 312 292 297 309 306 313 308 297 291 305 315 316 310 314 258 232 223 218 228 247 258 263 261 266 274 276 283 286
228 276 257 253 253 250 252 254 259 272 271 279 280 284 282 291 277 288 309 332 332 318 311 314 303 311 314 303 310 289 259 214 207 218 248 251 251 256 271 274 278 288 290 291
282 224 220 256 254 254 274 276 280 260 263 288 275 267 275 305 294 303 285 283 287 292 298 291 299 300 304 293 297 256 215 204 224 233 236 247 264 272 268 281 291 297 303 304
269 263 264 262 260 267 278 309 263 351 311 299 331 303 306 314 312 319 306 312 310 283 286 293 302 286 285 280 251 201 197 214 222 232 247 265 258 266 281 292 300 299 300 310
273 260 271 256 258 269 254 265 270 296 282 291 289 282 289 284 282 294 311 264 282 290 296 290 302 293 286 235 209 211 205 212 231 253 257 258 277 287 295 287 297 304 313 305
290 287 288 278 269 274 271 266 268 260 248 251 265 261 274 276 255 275 289 286 288 290 278 294 292 293 220 207 188 187 204 230 244 253 266 279 281 290 294 293 307 310 305 309
258 289 289 288 275 270 256 261 263 262 206 255 264 263 253 269 269 252 280 254 272 278 274 291 293 276 202 189 185 186 206 234 240 252 272 282 291 285 301 312 302 314 315 308
259 259 263 266 274 280 280 274 261 263 233 223 242 260 255 266 250 269 265 262 266 271 278 281 281 225 178 174 170 184 211 228 243 257 276 281 295 308 306 312 321 304 310 306
Wind_Speed_850mb
42 26 35 42 42 41 35 44 41 33 49 37 44 36 37 47 44 59 53 51 56 54 52 54 51 54 57 56 55 57 51 47 45 43 33 23 12 17 13 14 14 16 17 24
33 39 40 41 40 43 43 46 46 42 36 42 39 40 37 33 43 44 55 56 49 59 57 61 61 63 63 62 60 62 58 52 49 44 28 25 24 19 20 20 18 24 18 30
40 40 45 40 38 43 45 43 42 46 35 37 34 31 23 29 49 55 53 49 53 56 63 62 70 70 67 69 68 65 64 58 52 47 46 45 41 26 12 8 9 27 31 36
41 40 47 24 30 38 35 32 36 37 33 33 32 28 32 39 42 40 50 60 63 63 57 71 74 79 74 71 69 64 64 63 56 50 50 43 33 14 16 24 21 28 30 33
43 43 41 38 38 36 36 35 39 41 39 37 45 30 29 34 48 47 42 53 53 46 52 63 66 83 81 72 67 64 60 63 56 62 45 42 37 29 31 24 25 29 25 26
46 51 38 36 29 34 34 35 38 29 28 29 41 38 32 30 33 32 43 59 57 52 54 53 64 69 85 80 73 70 65 61 57 58 54 46 37 34 33 29 30 28 14 25
41 50 44 36 27 34 42 24 18 23 26 26 39 39 32 31 25 11 30 53 62 58 55 55 65 73 81 87 79 73 67 62 59 57 58 56 48 41 40 36 33 25 30 28
34 38 48 38 42 40 30 29 23 27 25 34 41 41 36 42 51 12 13 24 26 22 24 21 26 31 48 84 81 72 70 64 60 61 59 54 52 47 43 37 34 35 36 41
39 54 47 48 50 43 47 31 41 38 40 30 32 40 47 19 18 15 22 21 21 10 9 14 24 30 40 58 81 75 67 67 60 53 52 51 48 47 40 34 42 44 45 45
16 31 42 42 37 46 39 32 29 23 35 39 37 37 16 29 27 26 22 26 19 18 9 13 20 24 29 36 74 74 65 64 54 44 46 53 53 49 46 45 47 47 48 49
21 17 33 38 40 33 25 29 32 25 20 27 27 28 28 11 30 14 23 35 38 24 26 20 18 16 23 20 53 62 54 48 40 40 50 51 48 46 44 46 48 49 49 50
23 13 27 46 46 47 38 38 35 18 30 24 29 27 17 24 24 24 33 30 32 25 20 21 15 14 23 28 39 43 46 46 41 47 52 51 47 48 49 51 51 51 51 53
21 12 23 34 37 42 48 38 30 30 28 35 28 24 14 20 9 17 22 19 23 22 14 22 30 20 24 29 34 37 49 48 48 48 48 49 50 48 48 50 50 51 54 57
16 20 28 29 33 29 26 41 32 24 23 26 30 41 46 36 5 11 10 11 36 36 27 21 36 38 33 37 38 46 42 44 43 40 43 44 45 49 44 43 51 56 57 58
26 25 36 44 48 52 50 48 43 35 43 35 31 50 44 38 26 47 52 26 33 24 11 32 23 31 44 41 37 33 38 42 46 48 45 45 49 52 53 53 55 55 58 63
21 18 33 39 43 46 57 52 50 50 31 48 49 50 34 43 64 21 30 17 26 33 35 49 27 39 30 22 28 41 46 47 40 42 41 42 45 48 44 45 52 56 60 63
34 30 31 38 40 41 39 46 52 52 48 32 34 45 37 34 38 12 34 29 35 41 41 50 47 24 13 29 28 27 27 39 46 42 36 41 43 41 41 46 49 55 62 70
44 40 29 31 38 43 31 39 43 43 49 47 47 43 44 44 46 52 30 34 26 40 35 29 45 40 35 29 23 30 29 40 38 37 35 37 37 38 42 47 57 62 65 74
34 38 33 29 34 40 47 40 38 41 47 37 39 44 53 53 42 51 35 32 30 34 35 29 31 40 42 34 36 30 22 30 29 29 30 29 34 40 44 53 57 66 73 76
18 7 19 32 33 37 42 50 69 51 44 44 47 36 34 37 23 22 42 37 35 29 27 28 26 31 35 34 33 36 24 23 23 21 22 27 38 45 53 55 65 67 68 72
24 14 21 22 20 17 40 51 62 35 27 45 52 48 51 21 26 39 47 65 44 35 32 32 34 36 39 34 39 31 23 20 15 18 26 36 42 41 51 59 59 60 60 60
30 23 23 24 31 40 15 34 40 10 29 35 33 36 31 24 35 37 32 24 20 27 32 34 35 39 45 44 33 21 19 16 21 28 31 34 39 48 49 46 47 50 54 56
28 21 21 26 19 25 32 31 29 21 30 31 31 33 29 30 32 34 45 15 28 30 33 34 38 37 38 34 30 25 19 21 27 25 29 42 43 35 33 37 43 47 42 47
36 46 16 27 30 35 58 56 50 48 57 32 37 34 33 36 41 33 28 25 24 25 35 36 44 38 33 30 20 26 25 29 33 28 32 28 27 27 32 31 35 36 44 52
29 36 39 44 45 48 61 59 57 50 24 29 47 42 50 43 41 37 36 28 28 37 34 39 42 44 42 26 22 20 16 25 18 23 20 21 19 26 29 28 35 41 45 51
37 40 30 33 52 47 57 46 49 52 39 32 36 39 43 41 27 44 37 31 29 44 30 31 38 29 37 28 22 17 16 20 16 13 13 15 21 22 25 30 37 40 45 55
Wind_Direction_850mb
216 229 230 230 229 245 248 254 242 210 250 237 209 208 209 255 240 186 196 203 203 204 198 191 187 186 185 193 199 183 190 197 194 186 177 185 184 177 199 250 275 321 330 339
234 225 241 239 235 234 241 256 263 265 228 243 204 215 232 221 249 204 193 203 211 203 201 190 186 187 190 194 205 191 194 200 198 192 164 199 176 205 189 243 291 309 318 335
232 238 227 229 250 239 238 235 249 261 271 266 260 227 223 246 233 245 216 213 218 217 199 195 188 187 191 197 209 202 198 205 199 193 189 194 197 215 234 237 332 305 322 323
245 250 258 230 248 254 247 247 262 267 252 256 222 244 237 240 252 234 242 202 211 214 212 195 191 189 191 200 209 212 206 211 200 187 213 209 212 192 190 197 247 271 300 321
254 244 248 241 235 256 252 244 243 233 249 260 253 237 237 227 225 231 222 224 222 225 218 200 192 192 195 196 203 210 212 215 209 196 206 213 201 201 227 237 255 286 311 319
257 265 266 241 250 242 257 246 251 271 232 241 248 250 238 242 252 240 213 203 212 212 221 210 199 196 196 196 197 207 209 214 216 211 201 216 217 202 216 238 263 288 290 275
256 256 253 261 249 249 231 233 241 230 238 234 235 242 246 260 249 247 221 198 202 204 210 206 204 205 198 192 192 201 205 210 216 215 218 216 217 231 239 252 268 273 280 289
255 238 244 233 224 245 201 222 232 232 233 238 231 243 241 239 259 187 58 161 156 166 193 218 231 226 211 192 187 194 202 206 214 214 227 224 227 236 249 257 267 270 276 292
245 257 263 228 232 213 244 214 231 253 263 263 263 244 219 182 116 139 144 136 124 146 222 252 244 230 229 200 188 189 198 199 206 213 226 226 234 240 246 249 259 273 283 291
292 292 262 266 281 216 218 250 243 223 241 256 259 264 276 176 194 173 173 160 183 143 157 229 249 244 235 215 193 187 195 194 201 216 229 227 236 245 253 257 264 271 280 286
318 287 268 277 260 249 211 216 245 275 231 264 248 254 283 295 191 206 189 183 161 160 204 182 222 208 212 204 167 173 178 192 202 223 224 231 237 246 256 264 272 277 284 292
11 309 277 255 262 269 260 237 224 236 254 246 247 242 268 45 101 219 184 172 143 161 175 158 164 179 185 164 162 176 187 194 214 216 222 232 239 242 250 261 270 278 284 291
352 284 282 267 264 273 270 253 251 260 228 241 250 250 229 156 89 106 145 156 172 167 177 157 149 167 171 169 177 187 198 202 206 213 220 231 237 250 258 269 276 283 286 291
328 266 267 262 273 308 308 309 333 330 294 223 244 272 255 264 77 28 32 222 177 180 189 187 168 166 175 175 185 193 192 199 209 213 220 230 246 251 261 261 268 276 285 290
331 301 303 280 278 285 284 284 284 269 275 256 237 221 254 270 85 50 338 306 345 346 215 198 203 178 177 181 186 195 201 206 209 216 221 231 238 247 257 265 275 282 283 286
286 290 301 290 290 283 283 278 275 270 242 276 274 265 244 236 109 74 305 284 335 327 344 325 233 206 217 219 201 211 216 217 216 219 225 233 246 253 260 265 274 282 287 287
275 280 285 280 285 287 270 268 267 271 271 257 264 296 300 306 324 110 162 272 195 234 217 248 272 312 355 223 226 240 249 230 217 224 231 237 245 254 260 271 275 277 277 282
268 262 260 266 277 263 265 272 282 280 273 275 279 276 279 290 300 316 317 310 306 291 288 307 304 320 324 325 302 265 259 235 223 220 226 238 251 258 262 267 269 276 280 281
257 253 255 253 255 267 271 264 261 266 274 275 280 268 271 279 312 292 297 309 306 313 308 297 291 305 315 316 310 314 258 232 223 218 228 247 258 263 261 266 274 276 283 286
228 276 257 253 253 250 252 254 259 272 271 279 280 284 282 291 277 288 309 332 332 318 311 314 303 311 314 303 310 289 259 214 207 218 248 251 251 256 271 274 278 288 290 291
282 224 220 256 254 254 274 276 280 260 263 288 275 267 275 305 294 303 285 283 287 292 298 291 299 300 304 293 297 256 215 204 224 233 236 247 264 272 268 281 291 297 303 304
269 263 264 262 260 267 278 309 263 351 311 299 331 303 306 314 312 319 306 312 310 283 286 293 302 286 285 280 251 201 197 214 222 232 247 265 258 266 281 292 300 299 300 310
273 260 271 256 258 269 254 265 270 296 282 291 289 282 289 284 282 294 311 264 282 290 296 290 302 293 286 235 209 211 205 212 231 253 257 258 277 287 295 287 297 304 313 305
290 287 288 278 269 274 271 266 268 260 248 251 265 261 274 276 255 275 289 286 288 290 278 294 292 293 220 207 188 187 204 230 244 253 266 279 281 290 294 293 307 310 305 309
258 289 289 288 275 270 256 261 263 262 206 255 264 263 253 269 269 252 280 254 272 278 274 291 293 276 202 189 185 186 206 234 240 252 272 282 291 285 301 312 302 314 315 308
259 259 263 266 274 280 280 274 261 263 233 223 242 260 255 266 250 269 265 262 266 271 278 281 281 225 178 174 170 184 211 228 243 257 276 281 295 308 306 312 321 304 310 306